AWK75 NZAA-NZCH

Flight info

Callsign AWK75
Flight time N/A
Altitude 38000
Route IGBAT H384 NP H252 NS Y288 IPRAK
Aircraft B738/M-SDE2E3FGHIRWXY/LB1

Departure

Time N/A
Airport Auckland International Airport (NZAA)

Arrival

Time 2026-04-27 15:35
Airport Christchurch International Airport (NZCH)
Time Latitude Longitude Altitude Speed Heading
2026-04-27 15:25 -43.37005 172.39718 6633 ft 260 kts 197°
2026-04-27 15:25 -43.38739 172.39001 6353 ft 261 kts 197°
2026-04-27 15:26 -43.40486 172.38301 6071 ft 262 kts 195°
2026-04-27 15:26 -43.42263 172.37710 5793 ft 263 kts 193°
2026-04-27 15:26 -43.44050 172.37146 5509 ft 263 kts 193°
2026-04-27 15:26 -43.45832 172.36583 5213 ft 261 kts 193°
2026-04-27 15:27 -43.47560 172.36033 4930 ft 255 kts 193°
2026-04-27 15:27 -43.49242 172.35491 4802 ft 242 kts 193°
2026-04-27 15:27 -43.50837 172.34975 4670 ft 228 kts 193°
2026-04-27 15:27 -43.52335 172.34490 4566 ft 216 kts 194°
2026-04-27 15:28 -43.53754 172.34030 4464 ft 202 kts 193°
2026-04-27 15:28 -43.55075 172.33602 4365 ft 189 kts 193°
2026-04-27 15:28 -43.56338 172.33426 4300 ft 175 kts 177°
2026-04-27 15:28 -43.57590 172.33568 4317 ft 201 kts 175°
2026-04-27 15:29 -43.59037 172.33755 4043 ft 213 kts 174°
2026-04-27 15:29 -43.60412 172.34384 3573 ft 203 kts 143°
2026-04-27 15:29 -43.61191 172.35856 3294 ft 185 kts 110°
2026-04-27 15:29 -43.61315 172.37507 3117 ft 165 kts 80°
2026-04-27 15:30 -43.60916 172.38850 2997 ft 141 kts 46°
2026-04-27 15:30 -43.60223 172.39811 2812 ft 140 kts 45°
2026-04-27 15:30 -43.59551 172.40759 2629 ft 136 kts 42°
2026-04-27 15:30 -43.58852 172.41641 2455 ft 139 kts 41°
2026-04-27 15:31 -43.58119 172.42515 2271 ft 140 kts 40°
2026-04-27 15:31 -43.57385 172.43374 2085 ft 138 kts 40°
2026-04-27 15:31 -43.56665 172.44209 1897 ft 136 kts 40°
2026-04-27 15:31 -43.55943 172.45046 1727 ft 135 kts 40°
2026-04-27 15:32 -43.55226 172.45879 1551 ft 135 kts 40°
2026-04-27 15:32 -43.54510 172.46707 1370 ft 134 kts 40°
2026-04-27 15:32 -43.54401 172.46833 1346 ft 134 kts 40°
2026-04-27 15:32 -43.53665 172.47687 1159 ft 133 kts 40°
2026-04-27 15:33 -43.52955 172.48510 986 ft 133 kts 40°
2026-04-27 15:33 -43.52248 172.49330 806 ft 133 kts 40°
2026-04-27 15:33 -43.51544 172.50146 634 ft 132 kts 40°
2026-04-27 15:33 -43.50846 172.50955 461 ft 131 kts 40°
2026-04-27 15:34 -43.50383 172.51492 345 ft 131 kts 40°
2026-04-27 15:34 -43.49911 172.52039 225 ft 131 kts 40°
2026-04-27 15:34 -43.49605 172.52394 151 ft 131 kts 40°
2026-04-27 15:34 -43.48960 172.53137 110 ft 107 kts 40°
2026-04-27 15:35 -43.48559 172.53605 108 ft 21 kts 40°
2026-04-27 15:35 -43.48554 172.53611 108 ft 18 kts 40°
2026-04-27 15:35 -43.48492 172.53766 105 ft 18 kts 72°
2026-04-27 15:35 -43.48459 172.53899 103 ft 12 kts 75°
2026-04-27 15:36 -43.48485 172.54007 107 ft 12 kts 117°
2026-04-27 15:36 -43.48526 172.54106 107 ft 12 kts 125°
2026-04-27 15:36 -43.48580 172.54191 107 ft 11 kts 130°
2026-04-27 15:36 -43.48612 172.54244 106 ft 4 kts 129°
2026-04-27 15:37 -43.48624 172.54263 107 ft 0 kts 129°
2026-04-27 15:37 -43.48624 172.54264 107 ft 0 kts 129°
2026-04-27 15:37 -43.48628 172.54273 107 ft 1 kts 119°
2026-04-27 15:37 -43.48628 172.54285 107 ft 1 kts 85°
2026-04-27 15:38 -43.48623 172.54295 107 ft 1 kts 49°
2026-04-27 15:38 -43.48616 172.54303 107 ft 1 kts 39°
2026-04-27 15:38 -43.48606 172.54315 107 ft 3 kts 39°
2026-04-27 15:38 -43.48592 172.54331 107 ft 2 kts 40°
2026-04-27 15:39 -43.48582 172.54342 107 ft 2 kts 40°
2026-04-27 15:39 -43.48575 172.54351 107 ft 1 kts 40°
2026-04-27 15:39 -43.48571 172.54355 107 ft 1 kts 40°
2026-04-27 15:39 -43.48567 172.54359 107 ft 1 kts 40°
2026-04-27 15:40 -43.48562 172.54363 105 ft 1 kts 30°
2026-04-27 15:40 -43.48557 172.54366 107 ft 1 kts 24°
2026-04-27 15:40 -43.48553 172.54370 106 ft 1 kts 35°
2026-04-27 15:40 -43.48552 172.54374 106 ft 0 kts 54°
2026-04-27 15:41 -43.48551 172.54375 106 ft 0 kts 56°
2026-04-27 15:41 -43.48552 172.54374 106 ft 0 kts 57°